When you browse on this site, cookies collect data to enhance your experience and personalize the content and advertising you see.
Visit our Privacy Policy to learn more. By continuing to use the site, you agree to this use of cookies and data.
  • In Italy
  • List of Countries
  • For 7 days
  • Water Temperature
  • Satellite Maps
  • Weather Map
  • Weather Widgets
  • user-avatar
    Login

    Hourly Weather Elsukovo

    Today, 16 November, Friday

    Time Temperature Precipitation Wind Pressure Humidity
    00:00 -6°C° 0 mm 3 mps 768 mmHg 37%
    01:00 -6°C° 0 mm 3 mps 768 mmHg 36%
    02:00 -6°C° 0 mm 3 mps 768 mmHg 35%
    03:00 -6°C° 0 mm 3 mps 768 mmHg 33%
    04:00 -6°C° 0 mm 3 mps 768 mmHg 32%
    05:00 -7°C° 0 mm 3 mps 768 mmHg 32%
    06:00 -7°C° 0 mm 3 mps 768 mmHg 32%
    07:00 -6°C° 0 mm 3 mps 768 mmHg 31%
    08:00 -6°C° 0 mm 3 mps 768 mmHg 30%
    09:00 -7°C° 0 mm 4 mps 768 mmHg 29%
    10:00 -5°C° 0 mm 4 mps 768 mmHg 28%
    11:00 -5°C° 0 mm 4 mps 768 mmHg 27%
    12:00 -4°C° 0 mm 4 mps 767 mmHg 26%
    13:00 -4°C° 0 mm 4 mps 767 mmHg 27%
    14:00 -4°C° 0 mm 4 mps 767 mmHg 27%
    15:00 -4°C° 0 mm 3 mps 767 mmHg 28%
    16:00 -4°C° 0 mm 4 mps 766 mmHg 28%
    17:00 -5°C° 0 mm 5 mps 766 mmHg 28%
    18:00 -5°C° 0 mm 5 mps 765 mmHg 29%
    19:00 -5°C° 0 mm 5 mps 765 mmHg 31%
    20:00 -5°C° 0 mm 5 mps 765 mmHg 33%
    21:00 -5°C° 0 mm 5 mps 764 mmHg 36%
    22:00 -5°C° 0 mm 5 mps 764 mmHg 40%
    23:00 -5°C° 0 mm 5 mps 763 mmHg 45%

    Tomorrow, 17 November, Saturday

    Time Temperature Precipitation Wind Pressure Humidity
    00:00 -5°C° 0 mm 5 mps 763 mmHg 49%
    01:00 -5°C° 0 mm 5 mps 763 mmHg 53%
    02:00 -5°C° 0 mm 5 mps 762 mmHg 57%
    03:00 -4°C° 0 mm 4 mps 762 mmHg 61%
    04:00 -4°C° 0 mm 4 mps 761 mmHg 64%
    05:00 -4°C° 0 mm 4 mps 761 mmHg 67%
    06:00 -4°C° 0 mm 4 mps 761 mmHg 70%
    07:00 -4°C° 0 mm 4 mps 760 mmHg 72%
    08:00 -3°C° 0 mm 4 mps 760 mmHg 73%
    09:00 -3°C° 0 mm 4 mps 759 mmHg 75%
    10:00 -3°C° 0 mm 4 mps 759 mmHg 73%
    11:00 -3°C° 0 mm 4 mps 758 mmHg 72%
    12:00 -2°C° 0 mm 4 mps 757 mmHg 71%
    13:00 -2°C° 0 mm 4 mps 757 mmHg 72%
    14:00 -2°C° 0 mm 4 mps 756 mmHg 72%
    15:00 -2°C° 0 mm 4 mps 755 mmHg 73%
    16:00 -2°C° 0 mm 4 mps 755 mmHg 74%
    17:00 -2°C° 0 mm 4 mps 754 mmHg 75%
    18:00 -2°C° 0 mm 4 mps 753 mmHg 77%
    19:00 -3°C° 0.1 mm 4 mps 753 mmHg 79%
    20:00 -3°C° 0.1 mm 4 mps 752 mmHg 82%
    21:00 -3°C° 0.1 mm 4 mps 751 mmHg 84%
    22:00 -3°C° 0.2 mm 4 mps 751 mmHg 86%
    23:00 -3°C° 0.2 mm 4 mps 750 mmHg 88%

    Day after tomorrow, 18 November, Sunday

    Time Temperature Precipitation Wind Pressure Humidity
    00:00 -3°C° 0.2 mm 4 mps 750 mmHg 90%
    01:00 -3°C° 0.5 mm 4 mps 749 mmHg 91%
    02:00 -3°C° 0.5 mm 4 mps 749 mmHg 92%
    03:00 -3°C° 0.5 mm 4 mps 749 mmHg 93%
    04:00 -3°C° 0.4 mm 4 mps 749 mmHg 93%
    05:00 -3°C° 0.4 mm 4 mps 748 mmHg 93%
    06:00 -3°C° 0.4 mm 4 mps 748 mmHg 93%
    07:00 -2°C° 0.1 mm 3 mps 748 mmHg 92%
    08:00 -2°C° 0.1 mm 3 mps 748 mmHg 92%
    09:00 -2°C° 0.1 mm 3 mps 748 mmHg 91%
    10:00 -1°C° 0.1 mm 3 mps 748 mmHg 91%
    11:00 -1°C° 0.1 mm 3 mps 749 mmHg 91%
    12:00 -1°C° 0.1 mm 3 mps 749 mmHg 90%
    13:00 -1°C° 0.1 mm 3 mps 749 mmHg 91%
    14:00 -1°C° 0.1 mm 2 mps 749 mmHg 92%
    15:00 -1°C° 0.1 mm 2 mps 750 mmHg 92%
    16:00 -2°C° 0 mm 2 mps 750 mmHg 93%
    17:00 -2°C° 0 mm 2 mps 750 mmHg 94%
    18:00 -2°C° 0 mm 2 mps 750 mmHg 94%
    19:00 -2°C° 0 mm 2 mps 751 mmHg 95%
    20:00 -2°C° 0 mm 2 mps 751 mmHg 95%
    21:00 -2°C° 0 mm 2 mps 752 mmHg 95%
    22:00 0°C° 0 mm 1 mps 752 mmHg 95%
    23:00 0°C° 0 mm 1 mps 753 mmHg 95%

    19 November, Monday

    Time Temperature Precipitation Wind Pressure Humidity
    00:00 0°C° 0 mm 1 mps 753 mmHg 95%
    01:00 0°C° 0 mm 1 mps 753 mmHg 95%
    02:00 0°C° 0 mm 1 mps 754 mmHg 95%
    03:00 0°C° 0 mm 1 mps 754 mmHg 95%
    04:00 0°C° 0 mm 1 mps 755 mmHg 95%
    05:00 0°C° 0 mm 1 mps 755 mmHg 95%
    06:00 0°C° 0 mm 1 mps 756 mmHg 95%
    07:00 0°C° 0 mm 1 mps 756 mmHg 95%
    08:00 0°C° 0 mm 0 mps 757 mmHg 94%
    09:00 0°C° 0 mm 0 mps 757 mmHg 93%
    10:00 0°C° 0 mm 0 mps 758 mmHg 93%
    11:00 0°C° 0 mm 0 mps 758 mmHg 92%
    12:00 +1°C° 0 mm 0 mps 759 mmHg 92%
    13:00 0°C° 0 mm 0 mps 759 mmHg 92%
    14:00 0°C° 0 mm 0 mps 760 mmHg 93%
    15:00 -1°C° 0 mm 0 mps 760 mmHg 94%
    16:00 -1°C° 0 mm 0 mps 760 mmHg 94%
    17:00 -1°C° 0 mm 0 mps 761 mmHg 94%
    18:00 -1°C° 0 mm 0 mps 761 mmHg 95%
    19:00 -2°C° 0 mm 0 mps 761 mmHg 95%
    20:00 -2°C° 0 mm 0 mps 761 mmHg 95%
    21:00 -2°C° 0 mm 0 mps 761 mmHg 95%
    22:00 -2°C° 0 mm 0 mps 762 mmHg 95%
    23:00 -1°C° 0 mm 1 mps 762 mmHg 95%

    20 November, Tuesday

    Time Temperature Precipitation Wind Pressure Humidity
    00:00 -1°C° 0 mm 1 mps 762 mmHg 95%
    01:00 -1°C° 0 mm 1 mps 762 mmHg 95%
    02:00 -1°C° 0 mm 1 mps 762 mmHg 95%
    03:00 -1°C° 0 mm 1 mps 762 mmHg 95%
    04:00 -1°C° 0 mm 1 mps 762 mmHg 95%
    05:00 -1°C° 0 mm 1 mps 762 mmHg 95%
    06:00 -1°C° 0 mm 1 mps 762 mmHg 95%
    07:00 -1°C° 0 mm 1 mps 762 mmHg 95%
    08:00 -1°C° 0 mm 1 mps 762 mmHg 94%
    09:00 0°C° 0 mm 1 mps 762 mmHg 94%
    10:00 0°C° 0 mm 1 mps 761 mmHg 93%
    11:00 +1°C° 0 mm 1 mps 761 mmHg 92%
    12:00 +1°C° 0 mm 1 mps 761 mmHg 91%
    13:00 +1°C° 0 mm 1 mps 761 mmHg 92%
    14:00 -1°C° 0 mm 2 mps 760 mmHg 94%
    15:00 -2°C° 0 mm 2 mps 760 mmHg 95%
    16:00 -2°C° 0 mm 2 mps 760 mmHg 95%
    17:00 -3°C° 0 mm 2 mps 760 mmHg 96%
    18:00 -3°C° 0 mm 2 mps 759 mmHg 96%
    19:00 -4°C° 0 mm 2 mps 759 mmHg 96%
    20:00 -4°C° 0 mm 2 mps 759 mmHg 96%
    21:00 -4°C° 0 mm 2 mps 758 mmHg 96%
    22:00 -5°C° 0 mm 2 mps 758 mmHg 96%
    23:00 -5°C° 0 mm 2 mps 758 mmHg 96%

    21 November, Wednesday

    Time Temperature Precipitation Wind Pressure Humidity
    00:00 -5°C° 0 mm 2 mps 758 mmHg 95%
    01:00 -5°C° 0 mm 2 mps 757 mmHg 93%
    02:00 -5°C° 0 mm 2 mps 757 mmHg 90%
    03:00 -6°C° 0 mm 3 mps 757 mmHg 87%
    04:00 -6°C° 0 mm 3 mps 756 mmHg 84%
    05:00 -6°C° 0 mm 3 mps 756 mmHg 80%
    06:00 -6°C° 0 mm 3 mps 756 mmHg 77%
    07:00 -6°C° 0 mm 3 mps 755 mmHg 77%
    08:00 -5°C° 0 mm 3 mps 755 mmHg 76%
    09:00 -5°C° 0 mm 3 mps 755 mmHg 76%
    10:00 -5°C° 0 mm 3 mps 755 mmHg 77%
    11:00 -5°C° 0 mm 3 mps 754 mmHg 78%
    12:00 -4°C° 0 mm 3 mps 754 mmHg 79%
    13:00 -4°C° 0 mm 3 mps 754 mmHg 81%
    14:00 -5°C° 0 mm 3 mps 754 mmHg 84%
    15:00 -5°C° 0 mm 3 mps 754 mmHg 87%
    16:00 -6°C° 0 mm 3 mps 753 mmHg 89%
    17:00 -6°C° 0 mm 3 mps 753 mmHg 90%
    18:00 -6°C° 0 mm 3 mps 753 mmHg 92%
    19:00 -6°C° 0 mm 3 mps 753 mmHg 92%
    20:00 -6°C° 0 mm 3 mps 753 mmHg 93%
    21:00 -6°C° 0 mm 3 mps 753 mmHg 93%
    22:00 -6°C° 0 mm 3 mps 753 mmHg 92%
    23:00 -6°C° 0 mm 3 mps 753 mmHg 91%
    Show more